Dewpoint
8 8 9 7 9 8 8 8 8 9 10 10 10 10 10 10 10 9 10 10 10 12 13 13 13 13 12 14 13 12 11 11 12 12 10 10 10 8 8 7 5 4 3 4 5 4 3 3 3 2 2 2 2 3 3 7 4 5 4 4 4 5 11
8 8 7 7 8 8 8 8 8 9 9 10 10 10 10 10 9 10 10 10 10 11 12 12 12 13 14 14 13 13 11 11 13 10 8 8 8 8 7 6 5 4 3 4 5 4 3 3 3 2 2 3 2 2 4 2 3 4 4 4 4 3 5
8 8 7 6 7 8 8 8 8 9 9 9 9 9 9 9 9 9 10 10 11 11 12 13 14 13 12 12 12 12 12 13 12 9 7 6 7 6 6 5 4 4 3 4 3 3 3 3 3 3 3 3 4 5 4 3 3 3 5 7 5 5 6
9 8 6 6 7 8 8 8 9 9 9 9 9 9 9 9 9 10 10 11 11 11 12 12 12 13 12 13 13 14 14 13 9 7 7 6 6 6 5 5 4 3 4 4 3 2 4 3 4 4 5 6 7 6 5 4 4 4 4 4 6 4 4
9 7 6 6 7 7 7 8 9 9 9 9 9 9 9 10 10 10 10 10 11 14 12 11 11 11 12 13 14 15 14 11 7 6 6 5 6 6 6 5 4 4 4 5 4 5 5 6 6 7 7 7 6 6 5 5 4 4 3 2 3 5 5
9 8 6 6 6 7 8 9 9 9 9 9 9 9 10 10 10 10 9 10 10 10 10 11 10 12 13 14 15 15 14 9 5 3 4 4 5 6 5 5 5 5 6 7 7 7 6 6 7 7 7 7 6 5 4 3 3 2 2 1 1 2 4
9 8 6 6 6 7 9 9 10 9 9 8 9 9 9 9 9 10 10 8 9 9 10 10 10 11 13 15 17 14 10 6 3 3 4 6 6 7 8 8 8 7 6 6 6 7 7 8 8 8 6 5 5 4 3 1 0 -1 1 1 1 3 4
11 8 8 6 7 8 9 9 9 9 9 10 10 9 9 9 9 9 8 8 9 10 10 11 12 13 15 17 15 10 5 2 3 6 7 9 9 9 8 7 7 8 9 9 8 9 8 8 8 5 4 4 2 1 0 0 -0 -2 -2 -0 1 -0 2
13 10 9 7 7 8 9 9 10 10 10 9 9 8 9 9 9 9 9 9 9 11 12 14 15 16 16 14 16 16 16 14 14 10 9 9 8 7 8 8 8 9 10 10 10 9 9 7 5 4 3 2 2 2 1 1 0 -1 -1 -1 -0 -0 0
13 11 10 9 8 8 9 11 10 12 15 15 11 8 8 9 9 9 9 9 10 11 13 15 15 16 18 18 17 15 14 13 12 13 12 10 7 8 9 9 9 10 11 11 10 8 7 6 5 5 3 3 2 2 2 1 0 -1 -1 -1 1 1 2
13 12 10 10 9 9 9 11 11 15 17 18 17 12 9 9 9 9 10 10 11 12 13 14 15 13 13 15 16 14 11 11 12 12 12 14 14 13 10 10 10 11 13 11 9 8 7 6 5 5 5 4 3 2 1 -0 -1 -1 1 1 0 -0 3
15 12 10 10 11 10 10 11 14 16 17 18 19 18 12 11 10 10 11 11 12 13 14 15 14 11 7 6 4 2 1 9 12 12 12 12 12 11 14 17 14 13 11 10 8 7 6 5 5 5 6 6 5 3 2 1 -0 1 2 3 1 -0 1
14 14 13 11 11 12 12 14 15 17 18 19 20 21 18 11 12 12 12 12 13 14 14 14 14 11 8 4 13 13 4 -3 -4 10 11 11 10 12 15 16 18 18 13 10 8 6 5 5 5 6 6 6 6 6 4 3 2 1 2 1 1 1 0
14 13 12 12 12 14 13 13 15 18 19 19 21 21 20 16 14 14 13 13 14 13 13 13 13 11 8 3 2 3 0 -5 -6 -4 -2 3 6 8 12 16 16 14 14 11 6 6 5 7 8 7 8 8 10 8 6 4 3 2 1 1 1 2 3
14 15 14 13 13 13 12 12 16 18 19 20 21 21 20 17 16 15 14 13 13 13 13 13 12 10 7 4 1 -0 3 -2 -2 1 5 7 8 11 13 12 9 7 6 6 8 9 10 11 11 10 10 11 11 9 8 7 6 6 5 5 5 5 6
16 14 15 14 13 12 13 13 17 18 19 20 21 21 18 17 16 14 13 13 12 12 12 12 11 8 5 3 3 9 11 11 9 7 8 10 12 12 11 9 11 13 13 12 13 13 12 10 10 14 11 12 10 8 7 7 6 7 8 7 5 3 3
15 14 14 13 12 12 13 12 15 18 19 20 20 20 17 16 15 14 13 12 12 12 12 10 7 5 6 5 1 8 11 11 11 11 13 13 12 11 9 6 4 10 15 17 17 15 14 14 14 14 15 15 14 9 8 5 3 1 1 2 2 3 4
15 14 13 13 12 12 11 12 14 18 20 20 21 19 17 16 14 13 12 11 11 12 12 10 13 13 8 5 1 11 11 13 13 12 13 12 10 7 4 3 4 7 8 11 11 9 9 10 11 11 11 11 11 11 8 2 -2 -1 1 1 1 0 2
15 14 13 13 12 15 13 12 13 18 19 21 21 19 17 15 14 12 11 10 10 9 8 8 10 12 12 10 9 11 12 13 14 14 14 11 7 3 2 3 7 4 -0 -1 -3 -5 -4 -2 2 1 2 3 8 8 6 -0 -1 -1 -1 -2 -1 1 2
15 13 13 12 12 12 12 11 11 13 19 20 21 21 18 15 13 11 10 10 11 8 7 8 8 9 11 11 11 11 12 14 17 15 12 8 4 2 2 9 1 -1 0 -3 -5 -6 -6 -5 -4 -2 -1 -0 0 0 -0 -0 -1 -2 -2 -3 -1 -0 1
14 14 13 12 11 11 11 11 12 13 18 19 20 21 20 14 13 11 9 9 9 8 7 5 6 3 8 10 10 11 14 17 17 15 10 6 6 7 11 8 -3 -5 4 -5 -6 -6 -6 -6 -5 -5 -4 -2 -2 -1 -1 -1 -1 -1 -2 -3 -4 -4 -2
14 13 13 12 10 10 11 13 14 12 16 18 20 21 21 15 13 12 11 9 7 7 5 6 5 -1 5 9 10 13 16 16 13 12 6 8 14 13 10 2 -2 -6 -7 -8 -7 -8 -7 -7 -7 -7 -5 -4 -3 -2 -1 -1 -2 -2 -3 -3 -2 -4 -4
13 13 12 11 11 11 12 13 14 16 13 17 19 20 21 20 16 17 14 11 9 7 7 4 0 -1 8 8 14 16 14 12 10 8 9 12 11 8 7 2 -8 -6 -9 -9 -9 -8 -9 -8 -8 -7 -7 -5 -4 -3 -2 -1 -1 -2 -4 -3 -2 -1 -1
13 12 11 11 10 10 10 12 12 15 16 15 17 19 20 21 20 18 14 12 11 8 5 0 -3 1 9 14 14 12 11 7 7 7 9 10 8 5 3 -5 -8 -10 -9 -9 -9 -9 -9 -9 -8 -8 -7 -6 -4 -3 -2 -1 -0 -0 -1 -2 -3 -3 -0
12 11 10 10 9 9 10 11 11 12 15 17 15 17 20 20 19 18 18 13 10 6 3 9 10 12 13 10 9 8 5 4 5 8 7 7 5 2 -10 -9 -11 -10 -11 -11 -10 -10 -9 -9 -8 -7 -6 -5 -3 -1 -1 -1 -1 -0 1 2 1 -0 1
11 10 10 9 9 9 9 10 11 11 12 14 15 16 18 19 19 17 18 15 10 12 11 10 12 7 6 7 5 -1 -4 -3 -3 4 4 4 2 -12 -9 -10 -10 -10 -11 -11 -11 -10 -10 -9 -8 -8 -7 -4 -3 -4 -4 -3 -3 -2 -1 1 1 2 4
11 10 10 9 9 9 9 10 10 10 10 12 13 14 14 15 16 17 17 14 9 9 0 2 1 3 4 8 5 4 4 2 0 -7 -8 -11 -12 -11 -11 -8 -8 -10 -12 -11 -11 -10 -9 -9 -8 -7 -7 -7 -6 -6 -5 -3 -2 -4 -2 0 1 1 1
10 10 9 9 9 9 9 9 9 10 9 9 11 13 13 13 13 14 11 6 0 -5 -4 -8 5 -1 -9 -10 -11 -12 -13 -14 -14 -12 -11 -13 -13 -12 -10 -2 2 1 -12 -13 -12 -12 -10 -9 -9 -9 -9 -8 -8 -7 -6 -3 -4 -4 -4 -1 -1 -2 -2
10 10 10 10 9 9 8 9 9 10 13 10 13 11 11 11 11 9 7 9 8 -4 -9 -12 -14 -13 -13 -14 -12 -13 -15 -15 -14 -13 -13 -14 -11 -12 -13 -12 -12 -11 -10 -10 -10 -10 -10 -10 -10 -10 -9 -9 -9 -8 -7 -4 -4 -5 -5 -3 -3 -4 -3
12 12 11 10 10 10 9 8 9 14 16 16 16 16 16 15 15 14 9 12 11 4 -11 -16 -17 -17 -16 -15 -15 -14 -14 -14 -16 -15 -13 -13 -4 -11 -12 -10 -12 -12 -11 -9 -10 -10 -10 -10 -10 -11 -10 -10 -10 -9 -8 -6 -2 -5 -4 -6 -4 -5 -4
20 19 16 12 10 12 15 14 14 15 17 18 18 17 17 17 17 17 15 13 8 -2 -12 -15 -14 -16 -16 -15 -17 -15 -16 -16 -17 -15 -16 -15 -16 -16 -12 -10 -12 -10 -10 -10 -11 -10 -11 -11 -11 -12 -11 -11 -10 -10 -10 -9 -7 -7 -6 -6 -5 -6 -6
22 22 20 18 15 13 12 16 17 17 18 19 19 18 18 18 17 17 15 14 11 -8 -14 -15 -14 -16 -18 -17 -16 -15 -14 -17 -18 -17 -18 -18 -16 -13 -13 -13 -11 -9 -13 -11 -11 -11 -11 -11 -11 -12 -11 -11 -11 -10 -11 -10 -9 -9 -9 -8 -7 -6 -6
22 22 22 21 20 19 16 15 17 18 19 20 19 19 19 18 18 17 17 16 -0 -10 -11 -16 -15 -15 -16 -17 -16 -18 -19 -17 -18 -17 -17 -17 -16 -16 -14 -14 -12 -10 -12 -11 -7 -11 -12 -11 -12 -11 -11 -11 -11 -11 -12 -11 -11 -10 -10 -9 -9 -8 -7
22 21 21 21 21 20 19 18 18 19 19 20 20 20 20 19 15 18 18 9 -8 -9 -10 -13 -15 -15 -16 -16 -17 -17 -17 -18 -18 -16 -16 -16 -16 -17 -17 -14 -14 -13 -12 -12 -12 -13 -12 -11 -12 -12 -13 -13 -13 -12 -12 -12 -11 -11 -11 -12 -10 -10 -9
16 20 21 19 19 20 19 19 19 19 20 20 20 20 20 19 14 13 10 1 -10 -9 -10 -11 -11 -12 -14 -15 -15 -16 -18 -18 -18 -17 -17 -16 -16 -17 -16 -13 -11 -12 -14 -14 -14 -12 -11 -11 -13 -13 -12 -13 -14 -13 -13 -13 -12 -12 -11 -12 -11 -11 -10
13 15 19 20 19 20 20 19 19 19 20 21 21 21 20 11 9 8 3 -4 -9 -10 -10 -11 -11 -12 -13 -15 -17 -18 -18 -20 -20 -17 -15 -17 -16 -16 -14 -10 -9 -10 -13 -14 -15 -13 -11 -10 -13 -13 -13 -15 -14 -14 -14 -13 -13 -13 -11 -12 -12 -11 -11